Home > Weather > Vancouver > Past weeks

Flag for Canada Weather for the Past 2 Weeks in Vancouver, British Columbia, Canada

Now
50 °F

Partly sunny.


Feels Like: 50 °F
Forecast: 42 / 57 °F
Wind: No wind

Location: Vancouver International Airport

Current Time: Feb 9, 2016 at 12:31:23 PM

Latest Report: Feb 9, 2016 at 12:00 PM


Visibility: 30 mi

Pressure: 30.18 "Hg

Humidity: 88%

Dew point: 46 °F

Location of VancouverLocation

Historic Weather in Vancouver — Graph

°F

Vancouver Temperature Yesterday

Maximum temperature yesterday: 48 °F (at 11:00 AM)
Minimum temperature yesterday: 41 °F (at 2:00 AM)
Average temperature yesterday: 45 °F

High & Low Weather Summary for the Past Weeks

 TemperatureHumidityPressure
High54 °F (Jan 27, 10:00 AM)100% (Jan 26, 9:00 AM)30.61 "Hg (Jan 26, 9:00 AM)
Low36 °F (Feb 1, 3:45 AM)62% (Jan 28, 1:00 PM)29.59 "Hg (Jan 29, 10:00 AM)
Average44 °F87%30.14 "Hg
* Reported Jan 25 11:00 AM — Feb 9 11:00 AM, Vancouver, Weather by CustomWeather, © 2016

Note: Actual official high and low records may vary slightly from our data, if they occured in-between our weather recording intervals... More about our weather records

Advertising

Vancouver Weather History for the Previous 24 Hours

 ConditionsComfort  
Time TempWeatherWind HumidityBarometerVisibility
11:00 AM
Tue, Feb 9
46 °FPartly sunny.6 mph100%30.20 "Hg30 mi
10:04 AM43 °FQuite cool.8 mph93%30.21 "Hg1 mi
9:00 AM39 °FFog.5 mph100%30.21 "Hg0 mi
8:03 AM36 °FChilly.No wind100%30.20 "Hg1 mi
7:00 AM36 °FFog.2 mph93%30.19 "Hg1 mi
6:00 AM36 °FFog.2 mph93%30.21 "Hg1 mi
5:00 AM36 °FFog.3 mph100%30.22 "Hg2 mi
4:00 AM37 °FFog.2 mph100%30.24 "Hg15 mi
3:00 AM37 °FFog.3 mph100%30.25 "Hg15 mi
2:00 AM41 °FFog.2 mph100%30.27 "Hg20 mi
1:00 AM41 °FClear.6 mph93%30.28 "Hg20 mi
12:00 AM43 °FClear.12 mph100%30.32 "Hg20 mi
11:00 PM
Mon, Feb 8
43 °FClear.10 mph100%30.34 "Hg20 mi
10:00 PM45 °FClear.12 mph93%30.35 "Hg20 mi
9:00 PM45 °FClear.14 mph93%30.36 "Hg20 mi
8:00 PM45 °FClear.9 mph93%30.37 "Hg20 mi
7:00 PM45 °FClear.9 mph93%30.38 "Hg20 mi
6:00 PM43 °FPassing clouds.9 mph100%30.39 "Hg30 mi
5:00 PM45 °FScattered clouds.8 mph93%30.41 "Hg30 mi
4:00 PM46 °FScattered clouds.10 mph93%30.41 "Hg30 mi
3:00 PM48 °FScattered clouds.13 mph87%30.42 "Hg30 mi
2:00 PM48 °FScattered clouds.14 mph87%30.43 "Hg30 mi
1:00 PM48 °FScattered clouds.13 mph87%30.46 "Hg30 mi
12:00 PM48 °FScattered clouds.12 mph87%30.48 "Hg30 mi
Weather by CustomWeather, © 2016

See weather overviewHow to use our weather pages